Wetbulb
68.97 68.56 65.89 64.40 56.08 51.33 48.94 48.99 49.20 48.89 49.43 51.97 51.47 50.24 50.04 50.78 50.60 46.50 59.99 61.71 64.57 63.76 67.96 68.30 73.95 73.07 72.14 71.37 71.20 70.86 70.17 68.58 66.69 66.13 65.62 64.67 64.19 64.59 65.63 66.38 67.04 67.45 68.02 68.12 67.70 67.70 68.61 68.53 69.83
66.84 64.54 64.23 60.29 53.24 48.64 49.00 48.15 48.70 50.92 51.10 51.48 51.30 51.03 50.10 49.11 54.70 56.35 58.57 62.07 63.79 63.93 67.20 68.25 72.39 73.50 72.48 72.14 71.65 71.23 70.24 68.71 67.13 66.72 66.24 65.35 64.75 64.59 65.41 66.10 66.45 66.63 67.23 68.03 67.78 67.62 68.29 68.61 69.40
64.76 65.30 61.77 57.20 52.44 48.26 48.41 48.73 49.79 50.74 51.25 51.01 50.51 52.91 52.27 51.87 55.83 57.45 60.84 61.73 62.15 64.01 65.86 68.30 71.27 73.16 72.93 71.89 71.67 70.23 69.17 68.54 67.50 67.40 66.82 66.29 65.19 64.90 65.47 66.00 66.19 66.58 66.53 66.92 67.92 67.76 67.81 68.46 68.80
64.36 63.72 58.64 54.15 49.86 51.67 51.37 53.84 49.54 50.13 50.34 50.88 51.00 50.11 54.80 57.68 57.38 59.33 60.07 59.73 60.03 60.50 63.80 66.95 69.38 71.72 71.67 70.95 70.82 70.39 69.33 68.37 67.82 67.27 66.86 66.69 66.05 65.24 65.27 65.44 65.53 65.61 66.19 66.55 66.85 67.87 67.79 68.24 68.64
62.83 59.70 54.36 51.48 50.55 51.74 50.10 50.04 49.93 50.38 50.11 49.79 51.46 50.43 52.64 56.89 58.65 58.45 58.81 58.98 58.61 59.56 62.83 65.98 67.61 69.88 70.65 70.19 69.96 69.14 68.55 68.18 67.50 66.62 66.60 67.02 66.25 65.57 65.26 65.48 65.56 65.55 65.37 65.51 66.61 67.20 68.49 69.33 69.24
58.51 58.19 51.91 49.57 50.84 52.62 51.65 50.81 49.87 50.25 50.77 50.59 50.67 51.35 53.31 57.48 57.22 57.40 58.59 59.08 61.87 61.78 65.19 66.02 66.66 68.07 68.99 69.34 69.19 68.41 67.39 66.33 66.08 66.06 66.15 66.23 66.12 65.75 65.45 65.45 65.19 65.20 65.07 65.04 65.93 66.83 68.04 69.39 69.92
56.22 55.16 50.16 50.37 51.03 50.63 50.27 50.38 49.16 50.36 49.89 49.85 53.52 50.45 53.62 55.38 55.32 56.12 56.27 57.55 58.84 59.42 60.56 62.30 61.80 61.81 61.69 62.39 63.36 63.93 64.28 64.39 64.41 64.72 64.84 65.23 65.51 65.58 65.50 65.19 65.45 65.71 65.19 64.68 65.19 67.01 68.32 68.09 69.76
58.49 56.29 50.51 50.50 49.55 50.03 50.31 49.62 49.99 50.57 50.63 53.60 54.87 50.43 51.13 54.68 55.08 56.72 57.83 58.37 58.28 58.80 59.93 60.78 59.78 60.89 62.14 62.48 62.18 62.46 63.30 63.33 63.50 63.85 63.98 63.92 64.49 64.39 65.21 65.30 65.22 65.35 65.16 65.05 65.06 66.75 68.17 67.42 68.00
56.76 52.08 48.55 49.60 49.57 51.08 49.74 49.32 50.19 52.23 51.42 52.06 52.78 52.60 53.20 54.48 55.21 56.08 57.24 57.41 59.18 60.06 60.77 61.65 61.19 61.33 61.84 61.87 61.46 61.70 61.44 62.14 62.10 61.96 61.64 62.05 62.61 62.71 63.47 64.08 65.11 64.87 64.85 64.97 65.09 66.30 67.41 67.36 67.73
54.69 50.95 50.55 54.03 53.02 51.69 50.38 50.01 50.48 50.86 50.37 50.56 51.08 52.12 53.17 54.27 54.86 54.98 55.54 56.42 57.60 59.02 60.11 61.15 61.37 61.10 61.60 61.18 61.91 61.90 61.36 60.97 60.07 61.22 61.30 61.42 61.86 61.19 60.27 62.39 63.86 64.31 64.54 64.57 65.14 66.21 66.67 67.34 68.23
53.60 49.72 52.36 52.96 54.22 52.91 50.77 48.61 51.24 50.55 49.03 51.99 51.74 51.79 52.94 53.85 54.76 54.66 55.73 56.73 58.20 59.32 59.92 60.76 61.27 61.40 61.65 61.25 61.58 61.65 60.62 59.42 59.49 59.87 61.10 60.93 61.30 61.22 60.04 62.15 63.24 64.90 64.03 64.22 65.58 66.31 67.54 67.35 67.89
50.19 53.40 53.88 54.01 52.89 49.92 49.01 50.21 49.49 51.11 52.21 53.40 53.87 53.91 53.37 53.60 54.37 54.62 55.76 57.22 58.47 59.02 59.63 60.30 60.57 61.55 62.00 61.40 61.46 61.75 60.43 61.20 61.44 59.77 60.69 59.65 59.67 60.86 59.52 60.58 62.71 63.63 63.77 64.25 65.81 66.27 67.88 68.04 68.08
51.19 52.67 51.76 52.16 50.44 50.34 49.84 49.20 50.00 50.70 53.03 53.34 53.25 52.71 53.11 53.80 54.40 55.94 57.36 58.86 59.04 58.38 59.58 59.95 60.43 61.38 61.94 61.72 61.66 62.03 61.76 60.88 60.65 61.21 60.97 59.40 60.20 60.14 60.84 61.08 62.28 62.80 63.65 64.44 65.32 66.37 66.83 67.38 67.58
53.28 52.14 50.09 49.73 49.38 49.51 49.08 48.85 49.90 51.68 53.34 52.10 52.15 52.54 52.84 53.28 54.65 55.87 56.94 58.02 58.44 58.99 59.86 59.83 60.67 61.47 61.76 61.80 61.84 61.91 62.10 62.29 60.38 59.81 62.13 62.34 61.86 62.14 61.97 62.11 62.24 63.21 64.49 65.32 66.33 65.95 66.60 66.74 67.47
51.17 49.00 49.56 49.63 49.60 49.27 50.12 47.61 48.30 52.75 53.04 51.91 51.54 51.81 52.23 53.61 54.71 55.71 57.85 58.31 58.74 59.35 60.17 59.68 59.96 61.81 61.77 61.83 61.74 62.10 62.43 62.21 61.88 62.76 63.20 62.85 62.76 62.38 62.08 62.73 63.26 65.16 66.26 66.17 66.39 66.07 67.12 67.16 66.75
48.77 48.30 45.80 49.00 48.91 48.78 49.19 45.60 51.29 52.49 51.63 51.33 50.64 50.75 51.66 52.94 54.43 56.60 58.76 59.25 59.64 59.80 59.94 60.45 59.90 61.72 61.80 62.14 61.88 62.10 63.21 62.60 63.28 63.95 64.03 63.97 63.90 64.12 63.82 63.23 63.72 65.78 65.00 65.15 65.10 64.90 64.54 65.91 65.31
47.85 45.27 46.13 46.44 49.24 47.96 47.95 46.34 50.79 51.11 51.57 51.59 50.49 50.67 51.41 52.46 54.31 56.90 59.01 59.52 59.77 60.29 60.12 60.14 60.99 61.44 61.32 62.08 62.58 62.76 63.47 63.44 63.52 64.00 63.74 64.39 64.58 64.22 64.26 63.95 65.40 65.56 63.35 65.11 65.13 65.18 65.06 64.54 64.22
44.75 44.43 44.82 45.30 48.43 47.42 46.61 46.24 50.54 51.42 50.82 50.97 50.67 50.56 51.35 52.03 53.91 56.95 59.08 59.83 60.23 61.06 60.52 60.46 60.65 61.03 61.03 62.07 62.63 63.01 63.99 63.55 63.86 63.24 63.08 64.42 65.18 64.02 64.67 63.24 63.79 63.56 64.07 65.11 65.54 64.87 66.12 65.05 63.66
48.49 46.53 45.53 47.33 49.67 47.39 47.63 47.83 49.43 51.46 50.25 50.30 50.59 50.57 51.29 52.22 55.22 57.09 58.88 59.94 60.29 61.34 61.41 60.52 61.18 60.74 60.46 61.39 60.99 61.01 60.96 61.69 63.50 62.30 61.60 62.65 63.96 62.73 64.11 63.94 63.85 64.82 63.37 65.18 65.97 66.31 64.44 62.36 64.12
47.12 45.67 45.65 47.90 48.36 47.72 48.11 47.24 50.16 50.69 50.66 51.60 51.75 50.87 51.32 52.39 53.56 55.74 58.09 59.50 60.12 59.77 59.80 61.09 60.35 59.90 59.17 60.76 62.29 59.41 60.94 62.26 61.85 61.32 61.85 63.25 62.98 62.84 64.52 64.16 64.10 65.34 64.67 64.95 65.19 65.31 64.48 63.19 63.44
46.96 46.05 46.01 46.02 46.86 47.63 46.14 45.43 48.34 50.90 50.09 50.71 51.97 52.77 52.35 52.41 53.00 55.22 56.84 58.54 59.73 59.10 58.17 60.33 60.80 60.23 60.32 61.92 62.26 61.50 63.70 62.13 61.36 61.32 62.18 62.13 63.41 62.94 63.89 64.35 64.99 65.24 65.51 65.08 65.33 64.87 63.52 60.44 63.80
45.35 48.93 47.93 46.63 44.93 41.98 46.41 39.84 46.37 49.59 50.14 50.64 51.52 50.79 51.34 52.11 53.85 55.51 56.69 57.38 59.39 59.44 59.14 58.93 60.12 60.99 60.81 62.91 63.12 61.90 61.91 59.85 61.30 61.94 63.16 62.74 63.59 63.19 63.60 63.54 64.31 63.12 65.08 65.51 64.75 65.33 62.69 63.07 60.82
47.55 49.32 47.92 46.85 45.35 43.41 43.27 40.91 44.90 47.25 48.15 51.19 53.76 51.57 51.47 52.57 53.56 54.69 56.17 56.89 59.29 59.97 60.41 61.13 60.85 60.90 61.32 62.95 63.28 61.83 61.47 62.51 63.17 63.37 63.10 64.01 64.82 63.24 64.73 63.07 62.28 62.72 63.69 64.48 62.54 63.12 62.50 64.80 64.11
50.91 47.53 45.77 44.88 44.04 39.19 43.55 42.35 43.57 46.34 49.15 51.37 52.87 52.02 51.09 52.10 53.27 55.36 57.02 57.09 58.32 60.27 60.39 60.80 61.41 60.33 60.80 62.31 62.63 61.65 60.74 62.00 60.17 62.34 61.54 61.97 62.56 65.07 64.92 64.68 64.08 63.64 63.91 63.62 63.34 64.96 65.42 64.87 65.05
49.10 46.42 40.28 38.47 38.95 37.88 42.49 41.15 44.86 50.36 51.89 51.33 52.22 52.86 51.41 52.02 53.00 54.72 55.42 55.39 57.18 59.14 60.10 60.19 60.47 59.73 60.17 61.31 62.51 61.08 60.47 61.39 60.76 59.61 60.10 61.04 62.10 62.67 63.48 64.53 62.97 62.66 63.43 63.55 62.93 62.61 64.13 63.18 63.39
47.17 47.29 40.93 33.76 35.65 39.13 42.10 39.96 44.66 51.65 52.97 53.66 53.33 53.41 51.75 51.51 53.25 54.78 55.74 56.42 56.98 58.45 60.08 60.01 59.58 59.69 59.41 60.27 61.81 61.13 61.29 59.91 60.52 61.51 60.44 61.67 62.53 62.39 63.43 63.04 63.83 63.74 62.61 63.34 64.60 64.16 64.44 64.93 63.12
44.91 43.39 48.30 43.32 41.01 39.38 42.41 45.15 50.04 52.32 53.24 52.11 50.60 50.02 49.89 51.58 52.96 54.63 55.99 56.85 57.48 58.37 60.37 60.78 60.65 59.84 59.41 59.56 61.37 61.15 60.92 60.71 60.23 62.28 61.52 63.50 62.71 63.28 63.90 62.54 64.58 65.28 64.57 63.26 63.39 64.64 63.78 61.34 61.37
48.59 48.93 42.15 42.75 35.47 34.25 39.56 41.11 43.57 48.84 51.18 52.86 50.39 50.00 50.42 51.88 52.84 54.61 55.94 56.67 57.82 59.23 59.66 61.17 61.86 60.15 59.36 59.63 60.49 60.29 59.92 60.10 60.88 61.86 61.44 62.62 62.23 61.18 61.21 60.20 60.16 61.90 64.67 62.97 63.00 63.51 63.88 63.90 63.52
45.44 44.94 45.08 44.79 42.46 37.94 36.52 40.96 50.67 50.99 54.06 55.17 54.60 52.43 51.20 51.70 52.71 54.29 55.87 57.00 57.88 58.70 58.66 59.95 61.38 59.94 59.96 59.69 59.92 60.71 59.69 59.65 60.82 60.64 61.20 60.36 61.48 61.30 60.36 60.55 60.06 60.38 62.86 63.48 64.18 64.80 64.59 64.49 63.80
49.72 47.24 47.60 41.89 40.51 42.17 41.61 41.89 51.76 54.19 55.61 56.44 54.82 52.56 52.32 52.85 53.29 54.49 55.98 56.70 56.97 57.45 58.34 59.20 61.32 60.14 59.94 59.52 59.46 60.09 59.61 59.55 60.48 60.48 61.11 62.06 62.19 62.58 62.80 62.40 61.99 60.97 61.43 62.36 63.34 63.10 63.38 63.63 62.82
MSLP
1013.90 1014.16 1014.39 1014.04 1013.56 1012.57 1011.89 1012.12 1012.42 1012.47 1012.83 1013.14 1013.67 1013.86 1013.83 1014.06 1014.50 1014.72 1014.90 1014.97 1014.90 1014.83 1014.99 1015.31 1015.53 1015.65 1015.71 1015.78 1015.92 1016.08 1016.20 1016.39 1016.53 1016.60 1016.64 1016.66 1016.66 1016.61 1016.62 1016.58 1016.64 1016.69 1016.66 1016.60 1016.60 1016.65 1016.67 1016.64 1016.47
1013.85 1014.09 1013.91 1013.24 1012.57 1011.91 1011.58 1011.96 1011.68 1011.84 1012.50 1013.37 1013.67 1013.98 1014.18 1014.09 1014.65 1014.66 1014.64 1014.67 1014.53 1014.56 1014.99 1015.16 1015.29 1015.41 1015.35 1015.45 1015.68 1015.78 1015.97 1016.22 1016.26 1016.24 1016.27 1016.38 1016.43 1016.43 1016.36 1016.31 1016.39 1016.41 1016.46 1016.41 1016.33 1016.48 1016.48 1016.48 1016.43
1013.60 1013.34 1012.74 1012.82 1012.66 1011.85 1011.84 1011.87 1011.88 1012.19 1012.81 1012.93 1013.27 1013.77 1014.15 1014.28 1014.74 1014.67 1014.60 1014.62 1014.71 1014.67 1014.82 1014.93 1015.02 1014.97 1015.11 1015.29 1015.38 1015.52 1015.74 1015.90 1016.00 1015.99 1015.90 1015.92 1016.00 1016.14 1016.11 1016.08 1016.07 1016.16 1016.22 1016.17 1016.07 1016.16 1016.28 1016.27 1016.29
1013.00 1013.01 1013.46 1012.76 1012.28 1012.08 1012.01 1011.68 1012.11 1012.30 1012.55 1012.99 1013.23 1013.64 1014.28 1014.46 1014.60 1014.66 1014.82 1014.94 1014.94 1014.81 1015.05 1015.07 1015.21 1015.21 1015.21 1015.24 1015.23 1015.27 1015.34 1015.52 1015.56 1015.55 1015.57 1015.51 1015.50 1015.58 1015.76 1015.86 1015.90 1016.00 1016.12 1016.05 1015.92 1015.93 1015.97 1016.05 1016.10
1012.92 1012.73 1012.38 1012.30 1012.16 1011.97 1011.85 1011.73 1011.96 1011.65 1011.96 1012.42 1013.14 1013.39 1013.98 1014.44 1014.80 1015.13 1015.22 1015.11 1014.99 1014.89 1015.23 1015.19 1015.28 1015.17 1015.15 1015.11 1015.04 1015.10 1015.09 1015.11 1015.22 1015.14 1014.95 1014.83 1014.88 1015.17 1015.25 1015.45 1015.61 1015.70 1015.83 1015.97 1015.83 1015.77 1015.78 1015.83 1015.95
1012.40 1012.66 1012.00 1011.70 1011.79 1011.73 1011.43 1011.22 1011.59 1011.52 1011.87 1012.59 1013.05 1013.58 1013.87 1014.45 1014.89 1015.36 1015.48 1015.46 1015.12 1015.28 1015.47 1015.29 1015.21 1015.30 1015.19 1015.06 1014.97 1014.84 1014.82 1014.89 1014.90 1014.72 1014.54 1014.47 1014.47 1014.62 1014.86 1014.98 1015.22 1015.39 1015.49 1015.67 1015.72 1015.50 1015.55 1015.61 1015.78
1012.03 1012.10 1011.93 1011.91 1011.68 1011.42 1011.26 1011.54 1011.58 1011.52 1011.97 1012.27 1012.78 1013.36 1014.15 1014.58 1015.31 1015.58 1015.61 1015.47 1015.39 1015.51 1015.46 1015.40 1015.39 1015.38 1015.28 1015.29 1015.19 1015.07 1014.92 1014.89 1014.90 1014.70 1014.50 1014.35 1014.17 1014.07 1014.35 1014.50 1014.72 1014.93 1015.12 1015.30 1015.46 1015.36 1015.28 1015.54 1015.57
1012.17 1011.93 1011.74 1011.63 1011.37 1011.18 1011.18 1011.45 1011.57 1011.46 1011.63 1012.65 1013.02 1013.13 1013.85 1014.55 1015.32 1015.48 1015.42 1015.42 1015.51 1015.52 1015.45 1015.53 1015.56 1015.28 1015.26 1015.23 1015.32 1015.20 1015.01 1014.89 1014.67 1014.42 1014.26 1014.22 1013.95 1013.85 1013.98 1014.10 1014.50 1014.76 1014.75 1014.90 1015.06 1015.14 1015.13 1015.39 1015.55
1012.46 1011.85 1011.23 1011.15 1010.98 1010.68 1011.16 1011.22 1011.59 1011.75 1011.74 1012.50 1013.12 1013.65 1014.30 1014.87 1015.22 1015.17 1015.26 1015.21 1015.32 1015.39 1015.58 1015.67 1015.40 1015.37 1015.43 1015.28 1015.24 1015.27 1015.11 1014.85 1014.65 1014.45 1014.39 1014.29 1014.04 1013.91 1013.87 1013.76 1014.04 1014.32 1014.48 1014.53 1014.70 1014.86 1014.96 1015.27 1015.49
1011.90 1011.51 1010.83 1010.67 1010.38 1010.19 1010.52 1010.91 1011.10 1011.60 1011.87 1012.38 1013.11 1014.14 1014.70 1014.92 1014.99 1014.96 1015.06 1015.12 1015.31 1015.32 1015.44 1015.51 1015.49 1015.50 1015.32 1015.13 1015.15 1014.99 1014.80 1014.59 1014.51 1014.23 1014.11 1014.05 1013.94 1013.93 1013.91 1013.73 1013.64 1013.91 1014.18 1014.28 1014.39 1014.53 1014.75 1015.05 1015.10
1011.48 1010.70 1010.30 1010.03 1009.72 1009.88 1010.23 1010.63 1010.83 1011.02 1011.59 1011.46 1012.12 1013.50 1014.36 1014.73 1014.98 1015.02 1015.20 1015.36 1015.43 1015.45 1015.23 1015.33 1015.46 1015.41 1015.25 1014.99 1014.81 1014.61 1014.46 1014.42 1014.26 1014.16 1013.97 1013.86 1013.71 1013.71 1013.66 1013.43 1013.15 1013.61 1013.90 1013.89 1013.92 1014.07 1014.42 1014.76 1014.79
1011.05 1010.42 1010.13 1009.58 1009.63 1010.00 1010.16 1010.25 1010.38 1010.74 1010.43 1011.24 1011.86 1012.89 1013.92 1014.44 1014.76 1014.90 1015.22 1015.23 1015.38 1015.37 1015.22 1015.35 1015.39 1015.30 1015.10 1014.88 1014.48 1014.32 1014.24 1013.99 1013.71 1013.85 1013.76 1013.79 1013.73 1013.30 1013.51 1013.24 1012.90 1013.30 1013.60 1013.71 1013.79 1014.01 1014.20 1014.51 1014.72
1010.52 1010.00 1009.91 1009.68 1009.69 1009.80 1010.11 1010.27 1010.39 1010.20 1010.83 1011.37 1011.99 1013.05 1013.70 1014.26 1014.64 1015.02 1015.22 1015.34 1015.50 1015.32 1015.16 1015.31 1015.29 1015.03 1014.89 1014.65 1014.35 1014.13 1013.86 1013.67 1013.66 1013.62 1013.53 1013.69 1013.49 1013.20 1013.07 1012.91 1012.92 1012.96 1013.14 1013.36 1013.47 1013.69 1013.98 1014.34 1014.60
1009.38 1009.68 1009.58 1009.69 1009.91 1009.96 1010.05 1010.29 1010.67 1010.15 1010.95 1011.51 1012.04 1012.80 1013.62 1014.03 1014.46 1014.88 1015.19 1015.18 1015.34 1015.21 1015.07 1015.19 1014.98 1014.77 1014.59 1014.41 1014.28 1014.04 1013.89 1013.63 1013.68 1013.65 1013.17 1013.20 1013.01 1012.89 1012.91 1012.75 1012.76 1012.70 1012.82 1012.89 1013.24 1013.48 1014.04 1014.44 1014.73
1009.57 1009.46 1009.39 1009.64 1009.93 1009.77 1010.25 1010.04 1009.95 1010.04 1010.67 1011.22 1011.86 1012.79 1013.45 1013.93 1014.36 1014.54 1014.90 1015.11 1015.12 1014.94 1015.12 1015.03 1014.80 1014.50 1014.42 1014.28 1014.06 1013.85 1013.70 1013.59 1013.28 1012.91 1012.83 1012.79 1012.87 1012.84 1012.80 1012.66 1012.59 1012.53 1012.72 1012.90 1013.14 1013.46 1013.93 1014.51 1014.97
1009.42 1009.49 1009.39 1009.69 1009.79 1009.93 1010.27 1009.29 1009.10 1009.76 1010.43 1010.94 1011.80 1012.68 1013.32 1013.62 1013.91 1014.36 1014.76 1015.00 1014.92 1014.83 1014.99 1014.89 1014.74 1014.38 1014.23 1014.09 1013.77 1013.60 1013.41 1013.32 1013.00 1012.74 1012.56 1012.42 1012.39 1012.39 1012.42 1012.29 1012.12 1012.19 1012.53 1012.98 1012.94 1013.33 1013.85 1014.41 1015.09
1008.94 1008.96 1009.43 1009.66 1009.56 1009.88 1009.92 1009.16 1008.98 1009.74 1010.13 1010.63 1011.46 1012.27 1012.93 1013.45 1013.88 1014.33 1014.69 1014.82 1014.76 1014.72 1014.92 1014.70 1014.61 1014.10 1014.03 1013.84 1013.57 1013.38 1013.17 1013.02 1012.86 1012.58 1012.30 1012.08 1012.09 1012.07 1011.97 1011.90 1011.91 1012.17 1012.78 1012.72 1012.97 1013.46 1013.82 1014.49 1015.49
1008.68 1008.79 1009.42 1009.56 1009.57 1009.66 1009.51 1009.18 1008.51 1009.23 1009.78 1010.18 1011.04 1011.92 1012.61 1013.15 1013.33 1013.90 1014.47 1014.66 1014.66 1014.60 1014.79 1014.69 1014.41 1014.07 1013.99 1013.63 1013.40 1013.13 1012.98 1012.91 1012.65 1012.46 1012.22 1011.97 1011.89 1011.87 1011.73 1011.99 1012.18 1012.43 1012.67 1012.85 1013.06 1013.47 1014.21 1014.64 1015.56
1008.54 1008.79 1009.02 1009.36 1009.23 1009.26 1008.93 1008.74 1008.31 1008.64 1009.10 1009.64 1010.47 1011.21 1011.98 1012.50 1013.11 1013.66 1014.18 1014.44 1014.52 1014.40 1014.49 1014.47 1014.16 1014.05 1013.93 1013.38 1013.10 1012.97 1013.02 1013.02 1012.69 1012.73 1012.39 1012.10 1011.77 1011.92 1011.77 1011.97 1012.24 1012.43 1012.62 1012.69 1013.09 1013.55 1014.15 1015.28 1015.68
1008.55 1008.68 1008.93 1009.04 1009.19 1009.35 1008.77 1008.35 1007.85 1007.97 1008.00 1008.58 1009.29 1010.27 1011.14 1012.12 1012.76 1013.28 1013.86 1014.17 1014.24 1014.21 1014.28 1014.26 1013.99 1013.99 1013.90 1013.53 1013.35 1013.50 1013.43 1013.23 1012.98 1012.78 1012.27 1011.71 1011.74 1011.90 1011.70 1011.91 1012.04 1012.29 1012.63 1012.87 1013.26 1013.64 1014.43 1015.24 1015.72
1008.20 1008.38 1008.58 1008.88 1009.31 1009.24 1008.90 1008.02 1007.34 1007.01 1007.52 1008.02 1008.67 1009.43 1010.39 1011.15 1011.91 1012.74 1013.43 1013.78 1013.90 1013.95 1014.10 1014.08 1013.88 1013.92 1013.78 1013.64 1013.47 1013.41 1013.29 1013.29 1013.10 1012.92 1012.54 1012.21 1012.11 1011.99 1011.99 1011.88 1012.07 1012.30 1012.64 1012.98 1013.32 1013.79 1014.51 1015.31 1015.84
1007.62 1007.93 1008.34 1008.85 1009.30 1008.74 1008.98 1007.73 1007.15 1006.62 1006.82 1007.18 1007.76 1008.70 1009.60 1010.61 1011.59 1012.26 1012.96 1013.39 1013.53 1013.73 1013.97 1013.99 1013.82 1013.88 1013.73 1013.70 1013.47 1013.48 1013.24 1013.23 1013.31 1013.18 1012.94 1012.81 1012.39 1012.29 1012.28 1012.32 1012.35 1012.66 1012.87 1013.28 1013.85 1014.24 1015.02 1015.34 1015.76
1006.96 1007.66 1008.26 1008.72 1008.94 1008.98 1008.72 1008.35 1006.62 1006.63 1006.06 1005.87 1006.15 1007.66 1008.83 1009.87 1010.78 1011.64 1012.44 1012.87 1013.19 1013.61 1013.81 1013.87 1013.78 1013.81 1013.76 1013.84 1013.75 1013.49 1013.55 1013.44 1013.46 1013.29 1013.17 1013.11 1012.80 1012.51 1012.50 1012.55 1012.92 1013.08 1013.20 1013.68 1014.14 1014.75 1015.46 1015.66 1015.60
1006.75 1007.77 1008.56 1009.11 1009.06 1008.60 1007.80 1007.58 1006.31 1005.66 1005.29 1005.32 1005.76 1007.02 1008.26 1009.30 1010.42 1011.24 1012.03 1012.60 1012.99 1013.40 1013.70 1013.82 1013.70 1013.81 1013.82 1013.77 1013.93 1013.90 1013.72 1013.50 1013.56 1013.41 1013.45 1013.49 1013.32 1012.99 1013.05 1013.09 1013.34 1012.48 1013.94 1014.23 1014.60 1015.03 1015.56 1016.09 1016.09
1006.65 1007.36 1007.80 1008.27 1008.34 1007.87 1007.89 1007.44 1005.80 1004.90 1004.92 1005.70 1006.00 1006.80 1007.91 1009.06 1010.06 1010.83 1011.52 1012.20 1012.70 1013.03 1013.47 1013.70 1013.73 1013.77 1013.85 1013.78 1013.89 1014.16 1014.09 1013.80 1013.67 1013.48 1013.58 1013.57 1013.20 1013.46 1013.78 1013.78 1013.77 1013.98 1014.46 1014.17 1014.88 1015.37 1015.92 1016.26 1016.61
1005.88 1006.36 1006.83 1007.10 1007.43 1007.30 1007.84 1006.46 1005.06 1004.90 1005.35 1005.68 1006.09 1006.48 1007.75 1008.83 1009.73 1010.44 1011.02 1011.76 1012.25 1012.73 1013.20 1013.50 1013.69 1013.80 1013.89 1013.88 1013.98 1014.22 1014.27 1013.93 1013.87 1013.94 1014.18 1014.02 1014.03 1014.22 1014.34 1014.50 1014.55 1014.51 1014.83 1015.21 1015.43 1015.67 1016.26 1016.51 1017.05
1005.64 1006.08 1006.46 1006.70 1007.66 1007.31 1006.52 1005.95 1005.03 1004.84 1004.89 1005.55 1006.23 1007.13 1007.86 1008.63 1009.28 1010.02 1010.71 1011.48 1011.95 1012.47 1012.95 1013.35 1013.59 1013.81 1013.87 1013.93 1014.22 1014.39 1014.38 1014.28 1014.37 1014.41 1014.52 1014.24 1014.54 1014.68 1014.83 1015.04 1015.21 1015.10 1015.25 1015.59 1015.75 1016.21 1016.67 1017.11 1017.46
1004.28 1005.23 1006.23 1006.60 1006.48 1006.20 1005.77 1005.60 1004.64 1004.46 1004.58 1005.27 1006.39 1006.97 1007.79 1008.59 1009.35 1009.87 1010.38 1011.17 1011.75 1012.22 1012.83 1013.28 1013.51 1013.70 1013.88 1013.94 1014.26 1014.46 1014.61 1014.50 1014.66 1014.70 1014.86 1014.82 1014.85 1014.82 1015.22 1015.27 1015.35 1015.57 1015.58 1016.08 1016.33 1016.90 1017.09 1017.33 1017.71
1004.28 1004.52 1005.23 1005.62 1005.75 1005.44 1005.13 1004.58 1004.24 1004.28 1004.49 1004.81 1005.54 1006.51 1007.24 1008.10 1008.90 1009.59 1010.10 1010.87 1011.56 1012.08 1012.58 1013.06 1013.39 1013.66 1013.93 1014.05 1014.29 1014.54 1014.70 1014.71 1014.68 1014.90 1014.92 1014.96 1014.94 1014.87 1015.27 1015.65 1015.84 1015.78 1016.03 1016.37 1016.60 1016.89 1017.13 1017.37 1017.67
1002.56 1003.19 1003.95 1004.11 1005.00 1005.08 1004.69 1003.92 1003.92 1004.10 1004.15 1004.59 1005.35 1006.33 1007.18 1007.52 1008.41 1009.18 1009.81 1010.57 1011.28 1011.78 1012.29 1012.76 1013.13 1013.43 1013.77 1014.11 1014.32 1014.56 1014.74 1014.90 1014.89 1015.06 1015.25 1015.03 1014.88 1015.08 1015.23 1015.54 1015.78 1016.08 1016.34 1016.54 1016.70 1016.83 1017.15 1017.35 1017.71
Wind_Speed
9 9 4 3 4 2 1 1 2 3 2 1 5 3 6 2 5 1 2 4 5 3 11 11 14 14 14 14 14 14 13 12 12 11 10 10 11 12 11 10 9 8 9 10 9 8 7 5 5
7 5 3 1 2 2 3 1 8 6 2 4 4 3 2 3 1 1 3 5 6 2 4 9 13 15 16 15 14 14 13 13 13 13 13 13 12 13 14 13 11 9 9 11 10 9 8 7 6
8 3 2 1 1 3 5 2 8 3 3 4 3 1 1 1 2 2 5 5 3 5 5 9 16 18 15 14 14 14 14 15 16 17 17 16 14 13 15 14 13 11 11 11 11 11 10 9 7
4 3 3 2 2 2 5 9 4 4 3 4 2 3 2 3 2 2 4 1 5 6 6 7 11 11 14 15 14 14 15 17 18 19 19 18 17 15 15 15 14 11 10 10 13 11 11 10 8
2 1 2 1 3 4 7 6 6 9 4 4 6 4 2 2 3 4 3 4 6 6 5 7 8 10 12 13 15 16 16 17 18 20 21 20 18 17 17 17 16 14 12 11 12 13 12 9 8
2 1 3 3 4 5 7 7 6 10 8 5 5 4 2 3 3 3 4 3 4 2 1 3 5 6 11 13 14 14 13 14 15 18 20 21 20 17 19 18 17 16 15 13 13 14 10 11 8
2 2 3 4 7 7 4 4 6 8 7 7 5 4 1 5 3 3 3 4 5 3 2 3 4 5 6 7 9 11 13 13 15 15 15 17 22 20 20 20 20 16 14 14 13 14 11 11 9
2 3 4 3 5 9 2 4 1 10 9 4 4 4 2 4 6 5 4 4 2 3 5 6 5 5 5 7 10 12 12 14 15 15 15 13 13 12 18 19 17 16 14 14 14 14 12 11 9
2 4 5 5 4 4 3 6 3 0 4 3 3 1 1 10 7 4 1 2 3 4 5 5 5 4 5 6 6 8 10 11 11 10 10 10 6 8 9 12 18 17 15 13 14 13 12 12 10
5 4 5 5 5 8 4 9 6 6 4 4 3 5 8 8 6 4 1 3 4 6 6 4 5 5 6 5 5 6 6 6 6 7 9 7 7 6 8 11 14 15 14 12 13 14 13 13 7
5 9 10 11 16 10 5 7 7 7 6 9 13 12 11 7 5 3 1 3 5 6 7 6 5 5 6 5 4 3 3 3 4 6 7 7 5 4 4 5 7 6 10 7 9 9 8 10 8
8 11 9 8 5 6 5 5 7 10 9 2 9 15 12 10 7 3 2 4 6 8 9 7 5 5 5 4 4 4 3 4 4 4 6 4 4 6 4 5 6 6 6 8 7 6 8 10 10
9 13 5 6 4 5 6 4 6 11 6 4 12 14 12 9 7 4 2 2 5 8 7 7 6 5 5 5 4 4 5 5 6 5 5 4 5 3 5 5 5 6 6 7 7 7 8 9 10
6 9 1 1 1 1 3 2 3 2 7 9 14 14 11 10 8 4 3 3 4 7 6 6 6 5 5 5 5 5 5 5 4 5 5 6 5 3 3 4 6 6 6 6 6 8 8 8 8
3 5 3 2 2 1 3 6 10 7 10 12 13 11 10 10 8 6 4 4 3 6 6 6 6 4 5 6 5 5 5 5 5 4 5 6 6 5 5 5 5 6 6 6 7 9 8 8 7
4 3 2 1 3 0 7 13 9 8 13 14 13 11 11 11 10 7 5 4 3 6 6 6 5 5 5 5 5 4 4 4 5 4 3 6 7 8 6 6 6 5 5 5 8 8 8 8 7
2 4 5 5 5 2 8 10 6 3 13 13 13 13 12 10 9 7 7 5 3 5 6 6 6 6 7 6 4 5 5 4 4 4 4 6 6 7 7 5 4 7 5 6 8 8 9 9 6
7 4 3 4 1 6 7 14 18 8 12 15 14 13 12 12 12 9 8 6 5 6 5 5 4 5 7 5 4 3 1 3 3 3 4 3 2 1 6 4 6 6 7 8 8 10 8 9 7
7 4 4 5 6 4 9 13 19 11 11 13 13 15 14 14 10 8 8 6 5 6 6 5 5 6 6 5 4 3 5 4 3 4 4 5 2 4 6 6 7 7 8 9 11 10 13 7 9
6 4 5 6 3 5 9 14 16 11 8 13 16 16 17 14 11 10 9 7 5 5 5 5 5 5 5 4 3 2 2 2 3 3 4 5 5 5 6 6 6 8 8 11 12 13 9 6 8
6 6 4 8 1 5 6 8 7 5 5 6 10 15 16 17 15 12 11 8 6 4 3 4 4 5 5 7 4 2 2 3 3 4 4 6 6 3 5 6 7 8 8 8 12 10 12 6 7
10 11 6 5 4 8 2 6 7 7 12 9 10 14 16 17 14 12 12 9 7 4 0 1 3 5 4 5 5 5 5 4 3 3 4 4 8 6 7 6 7 5 7 10 8 9 6 9 8
9 6 5 3 6 3 4 5 4 4 9 14 11 14 16 18 17 15 13 10 8 5 2 1 3 4 3 4 5 4 5 4 3 3 5 7 7 6 11 7 7 7 6 9 11 11 7 7 10
5 4 3 2 3 4 6 6 3 5 7 6 4 8 16 18 17 14 13 9 7 6 4 2 1 3 2 3 5 7 7 5 4 5 4 3 2 5 9 10 7 9 8 9 8 12 13 8 8
8 7 5 4 5 6 2 5 8 12 12 9 14 6 14 17 17 15 15 11 9 8 6 3 2 2 3 4 5 6 5 5 6 4 3 4 4 4 7 9 7 6 9 9 5 9 9 6 8
13 13 8 5 5 7 3 5 6 3 3 5 7 3 12 17 16 15 16 13 11 9 8 5 4 1 1 3 5 5 6 5 4 4 4 3 3 4 6 4 6 7 9 8 8 7 6 9 7
7 8 6 8 2 4 3 5 11 2 6 1 3 6 12 17 17 16 15 12 11 9 9 7 5 3 0 2 2 4 5 6 6 6 5 4 4 3 4 5 5 5 8 6 6 6 7 6 5
13 13 6 3 5 7 4 3 7 8 7 2 4 7 12 15 15 15 14 13 10 9 6 7 6 4 3 1 2 3 4 4 6 4 5 5 4 1 4 5 4 4 6 5 6 5 7 8 6
8 9 2 3 3 8 8 5 5 5 4 5 6 9 15 17 17 14 13 13 11 8 7 7 7 7 5 3 2 2 4 4 5 6 5 2 3 4 7 8 7 4 5 7 7 5 6 7 9
22 18 15 11 9 4 5 9 5 8 5 5 1 7 11 17 16 14 14 13 11 10 8 8 8 7 6 5 4 2 4 4 5 6 6 5 6 6 8 9 10 9 9 7 8 8 8 10 9
Wind_Direction
152 160 192 214 232 269 291 182 307 248 222 142 117 176 204 133 184 275 11 216 215 217 198 208 212 212 215 223 229 233 236 238 242 248 257 260 260 264 263 264 263 264 261 255 245 249 249 252 271
154 161 202 158 256 289 326 271 241 235 127 128 142 133 183 241 215 265 226 193 217 211 182 216 213 214 219 225 232 236 241 247 252 257 263 263 256 257 260 257 253 251 259 263 247 238 244 241 252
170 211 232 83 116 322 313 236 290 278 212 190 169 227 183 198 202 248 231 210 231 244 235 218 210 216 226 236 241 249 253 248 254 259 262 262 260 254 257 254 254 251 252 259 253 235 236 235 237
187 148 111 252 283 249 249 298 256 239 160 202 173 223 195 221 192 180 6 235 256 260 268 257 253 246 240 244 253 255 257 260 259 258 263 257 257 249 246 247 247 246 254 255 262 256 228 237 231
64 175 157 170 272 261 245 264 213 215 202 174 172 218 229 192 85 65 7 307 266 270 285 267 260 258 256 259 260 263 266 270 269 269 268 266 254 250 236 241 242 246 247 254 254 259 244 227 233
136 264 225 279 273 260 273 238 200 222 209 134 189 184 199 85 146 53 75 63 44 62 322 279 275 295 289 281 286 287 296 304 301 291 272 270 264 247 240 234 238 244 248 247 257 254 253 234 218
206 212 276 289 299 296 276 146 207 223 230 222 130 200 120 162 100 111 91 71 72 59 359 326 315 324 335 333 325 319 310 304 300 296 295 290 268 250 243 230 231 240 237 245 246 252 249 248 212
183 229 180 227 306 299 301 197 259 210 241 103 162 241 230 154 143 139 101 73 69 352 333 318 303 309 315 327 328 318 313 304 299 290 290 300 298 287 252 238 234 234 238 244 242 249 240 244 212
156 231 252 257 237 285 194 221 160 359 153 121 141 237 50 133 149 143 108 26 348 327 329 311 288 287 308 311 306 311 306 303 311 308 301 303 294 287 274 254 236 227 237 247 245 250 232 229 214
214 232 231 225 215 253 223 219 192 191 150 195 180 111 135 151 168 185 240 325 325 322 317 305 292 292 309 306 308 301 307 315 312 304 308 302 292 281 265 257 250 227 232 245 249 244 235 219 202
187 250 248 249 245 246 246 208 189 201 205 205 212 166 164 170 171 170 273 317 319 318 310 320 318 316 315 308 298 302 322 296 285 292 285 290 284 263 260 246 227 224 237 242 240 228 228 203 195
238 239 242 286 260 189 220 161 204 211 238 154 202 164 169 178 179 182 260 339 329 320 312 322 299 303 319 300 298 306 308 292 294 285 289 292 276 262 235 230 210 206 215 222 229 220 201 194 187
230 260 202 253 257 213 148 223 236 235 209 123 144 161 174 174 175 191 218 300 306 304 311 310 300 308 321 303 310 313 310 309 305 279 263 257 262 259 225 212 207 201 202 214 208 202 188 181 182
226 231 194 110 319 165 214 194 228 278 159 154 162 174 174 180 182 185 215 259 297 302 309 323 321 297 319 315 311 317 309 303 280 258 259 253 262 261 242 207 203 204 201 191 176 170 165 174 170
268 192 138 172 197 22 196 245 231 230 179 177 183 175 176 187 184 201 217 240 290 302 312 325 317 310 328 322 317 315 305 295 269 253 242 242 245 246 238 228 220 209 185 163 168 161 157 167 159
214 100 165 105 180 122 220 274 273 212 180 197 187 185 186 190 197 205 210 237 267 290 310 318 319 325 329 319 317 310 305 292 282 281 269 248 232 227 231 232 208 182 152 169 163 162 163 162 148
185 247 274 294 211 155 216 267 274 192 206 205 193 191 195 195 200 207 212 223 255 287 311 317 315 340 326 314 305 302 309 317 333 308 285 271 261 247 225 214 185 172 163 171 161 158 160 152 139
235 198 194 246 233 213 243 254 273 250 213 218 201 193 196 202 203 195 205 219 250 280 302 309 316 346 335 323 305 294 279 13 338 352 333 301 306 206 180 170 173 164 166 162 163 159 153 143 140
224 193 226 240 255 256 262 273 276 277 231 218 203 198 198 204 197 191 197 216 248 273 289 317 327 360 360 352 351 331 360 6 21 18 343 310 227 140 147 148 153 165 166 165 165 155 140 129 136
180 188 235 269 271 224 278 272 276 266 248 225 212 201 199 193 193 189 193 206 230 286 299 298 324 346 353 336 327 300 318 25 14 349 333 14 154 130 182 162 164 167 160 165 159 151 142 130 137
187 209 214 286 318 237 279 271 280 290 258 240 226 215 200 193 188 186 186 200 215 264 316 318 326 339 1 348 357 313 147 79 43 356 27 42 84 106 141 152 163 165 162 158 154 138 140 139 137
217 217 239 245 264 292 233 296 291 294 291 261 231 206 198 191 193 182 182 190 205 228 245 329 14 353 34 7 30 34 56 65 48 30 48 48 75 71 90 88 107 100 134 131 121 129 114 138 133
241 163 203 228 250 293 204 243 269 291 278 270 248 207 199 190 184 182 182 186 195 203 190 283 15 9 54 37 4 352 44 60 61 60 75 71 56 75 86 81 85 102 113 111 111 119 133 145 145
155 131 93 97 176 244 241 229 259 245 246 267 258 200 194 185 183 180 179 172 189 200 180 165 33 22 21 31 20 20 24 49 73 70 57 53 49 46 77 79 87 93 108 104 119 131 142 132 125
175 188 236 231 215 269 101 202 263 269 266 278 296 259 192 182 178 177 173 178 184 197 180 171 110 38 358 329 344 43 32 50 61 46 26 27 350 56 57 63 59 87 108 109 104 117 131 128 119
195 205 232 236 240 294 137 232 258 277 344 306 317 259 174 178 179 180 176 178 184 192 186 179 142 110 31 25 16 33 34 41 60 61 46 60 57 42 67 91 84 103 111 115 131 121 118 128 114
169 199 233 247 56 259 252 245 276 266 251 289 94 161 170 180 180 180 176 180 184 189 192 190 169 154 127 32 3 41 39 36 61 61 71 65 45 58 56 64 91 134 141 127 107 115 110 99 103
204 159 173 189 223 250 207 264 267 292 314 238 199 189 174 178 185 182 178 181 189 191 175 191 187 174 163 123 28 42 53 39 68 116 84 86 81 10 81 59 86 126 155 135 120 137 133 142 149
176 200 182 237 239 257 272 261 230 227 290 309 230 199 175 179 188 186 181 183 191 187 181 184 183 169 172 177 121 75 79 72 59 79 84 71 98 92 103 121 120 139 142 136 138 139 160 150 149
205 206 206 224 205 233 278 265 192 216 256 293 181 185 192 178 185 188 185 183 187 190 187 190 182 177 173 171 154 130 97 93 73 68 70 65 52 81 100 113 112 113 114 123 126 139 145 149 144